STARLINK-36975

Last updated on Mon Mar 30 2026 00:02:05 GMT+0000 (Coordinated Universal Time)

1 67993U 26039H 26088.16668981 -.01937379 00000+0 -46251-1 0 9992 2 67993 42.9993 299.2751 0001390 274.5992 256.7613 15.44089848 6005
UTC large
Height (km)
Speed (km/s)
/
Latitude / Longitude
Inclination (degrees)
Orbital Period (minutes)
Azimuth
Elevation
Range (km)
Doppler Factor

Next 0 passes for location: London (51.5072 / 0.1276)

Sorry there are no passes over London.